Weather in Ist'e

Russia / Ryazan Oblast     54°17′39″N   40°06′18″E
temp.,
°C
wind,
m/s
gust,
m/s
humid.,
%
clouds,
%
prec.,
mm/h
press.,
hPa
HPBL,
m
6 march, sat
sat600:00−10wnw238539 0.0 101521
03:00−12wnw238520 0.0 101621
06:00−13wnw228714 0.0 101621
09:00−10nw239157 0.0 101796
12:00−7nnw248973 0.0 1016263
15:00−6nw358982 0.0 1015417
18:00−9w34917 0.0 101548
21:00−11w45903 0.0 101667
7 march, sun
sun700:00−13w45900 0.0 101579
03:00−13sw48900 0.0 1013117
06:00−12sw6128932 0.0 1010251
09:00−8sw9178866 0.1 1006703
12:00−4sw111890100 0.7 10011105
15:00−3sw121892100 2.1 9971227
18:00−2wsw101796100 1.3 9941042
21:00−8w5127583 2.1 997229
8 march, mon
mon800:00−9wsw7158033 0.0 999443
03:00−8sw6148864 0.0 998379
06:00−6wsw8158598 0.2 996732
09:00−9w9159086 0.4 998674
12:00−6wnw7108392 0.1 1000938
15:00−7wnw7118567 0.1 10031089
18:00−8w5119097 0.1 1005405
21:00−10nw4109395 0.2 1008257
9 march, tue
tue900:00−14wnw44950 0.0 101068
03:00−16nw44950 0.0 101264
06:00−18nw34965 0.0 101459
09:00−17nw369543 0.0 1015206
12:00−14nw359161 0.0 1016323
15:00−12nw468869 0.0 1017513
18:00−16wnw469260 0.0 101792
21:00−18wnw349130 0.0 102049
10 march, wed
wed1000:00−19wnw339339 0.0 102021
03:00−20sw019751 0.0 102020
06:00−17sse239799 0.3 101998
09:00−15e3496100 1.1 1019199
12:00−15ne4694100 0.4 1019309
15:00−14ne4690100 0.5 1020453
18:00−17nne239384 0.0 102221
21:00−20nne349888 0.0 102467